Accueil
METAR-TAF:

METAR-TAF

Aéroports :

Aéroport de Casablanca-Anfa

Casablanca, Maroc

latitude: 33-34N, longitude: 007-40W, altitude: 62 m

Observation

Le bulletin a été fait il y a 27 minutes, à 20:00 UTC
Vent 10 kt de est/nord-est
Température 20°C
Humidité 78%
Pression 1022 hPa
Visibilité 10 km ou plus
Quelques nuages à une hauteur de 1600 ft

METAR: GMMC 232000Z 06010KT 9999 FEW016 20/16 Q1022

Heure: 21:27 (20:27 UTC)


TAF: absent

Observations et prévisions météorologiques de plus de 4000 aéroports (messages METAR et TAF).

Les stations disponibles sont représentées par des disques jaunes et rouges sur la carte.

Passer la souris dessus pour voir le nom de la station.

Cliquer dessus pour voir les observations et prévisions météorologiques.

Pour changer de carte: cliquez sur les boutons verts avec une croix noire pour zoomer, sur le bouton vert avec un tiret pour effectuer un zoom arrière, ou sur les flèches vertes pour les cartes adjacentes.


METAR-TAF: